Regional Weather Roundup
Issued by NWS Newport/Morehead, NC

Home | Current Version | Previous Version | Text Only | Print | Product List | Glossary On
Versions: 1 2 3 4 5 6 7 8 9 10 11 12 13 14 15 16 17 18 19 20 21 22 23 24 25 26 27 28 29 30 31 32 33 34 35 36 37 38 39 40 41 42 43 44 45 46 47 48 49 50
315
ASUS42 KMHX 180825
RWRMHX
WEATHER ROUNDUP FOR EASTERN NORTH CAROLINA
NATIONAL WEATHER SERVICE NEWPORT/MOREHEAD CITY NC
300 AM EST MON DEC 18 2017

NOTE: "FAIR" INDICATES FEW OR NO CLOUDS BELOW 12,000 FEET
WITH NO SIGNIFICANT WEATHER AND/OR OBSTRUCTIONS TO VISIBILITY

NCZ015>017-031-032-045>047-102-103-180900-
NORTH COAST

CITY           SKY/WX    TMP DP  RH WIND       PRES   REMARKS
EDENTON        MOCLDY    43  41  94 CALM      30.18S
ELIZABETH CITY CLOUDY    45  41  86 S3        30.17S
KITTY HAWK     CLOUDY    45  40  80 CALM      30.15F
MANTEO         CLOUDY    45  42  88 SW3       30.18S

$$

NCZ045>047-081-094-103-104-180900-
CENTRAL COAST

CITY           SKY/WX    TMP DP  RH WIND       PRES   REMARKS
FRISCO         CLOUDY    49  47  93 CALM      30.18F

$$

NCZ095-097-098-100-101-180900-
SOUTHERN COAST

CITY           SKY/WX    TMP DP  RH WIND       PRES   REMARKS
BEAUFORT       CLOUDY    53  46  77 SW3       30.18F
CEDAR ISLAND   NOT AVBL
JACKSONVILLE   CLOUDY    52  49  89 CALM      30.17F
PINEY ISLAND     N/A    N/A N/A N/A SW6       30.17F
WILMINGTON     CLOUDY    53  49  86 S3        30.18F


$$

NCZ011>013-027>030-043-044-078>080-089-090>093-098-180900-
COASTAL PLAIN

CITY           SKY/WX    TMP DP  RH WIND       PRES   REMARKS
AHOSKIE        CLOUDY    39  39 100 CALM      30.17F
CLINTON        CLOUDY    51  43  74 CALM      30.18F
ELIZABETHTOWN  NOT AVBL
GOLDSBORO      CLOUDY    49  41  73 CALM      30.16S
GREENVILLE     CLOUDY    46  41  81 CALM      30.19S
HAVELOCK       CLOUDY    52  32  46 SW5       30.18F
KENANSVILLE    CLOUDY    50  45  81 CALM      30.18S
KINSTON        NOT AVBL
NEW BERN       CLOUDY    50  46  86 CALM      30.18S
RICHLANDS      CLOUDY    51  47  86 CALM      30.18F
ROCKY MOUNT    MOCLDY    44  42  93 CALM      30.18S
WASHINGTON     CLOUDY    47  44  90 CALM      30.18S
WHITEVILLE     CLOUDY    53  47  80 CALM      30.17S

$$

AMZ130-135-150-152-154-156-158-170-250-252-270-ANZ085-086-088-633-658-670-180900-
MARINE OBSERVATIONS

STATION/POSITION TIME  TEMP    WIND        PRES    WAVE   SWELL
                       AIR SEA DIR/SP/G            HT/PER HT/PER
                 (UTC) (F)     (DEG/KT/KT) (MB)    (FT/S) (FT/S)
CHESAPEAKE LIGHT NOT AVBL
64 E VA BEACH    0750   53 58  260/ 12/ 16 1021.8    2/ 3
DUCK             0800   48 52  230/  7/  8 1021.0
2 E DUCK         0800      54                N/A     1/ 9
OREGON INLET     0800   46 45  200/  5/  5 1021.8
13E OREGON INLT  0748      53                N/A     1/10   2/10
HATTERAS CG      0800   49 52  360/  2/  3 1021.6
DIAMOND BUOY     0810   58 72  280/ 10/ 14 1022.0
CAPE LOOKOUT     0800          210/  2/  2 1022.3
BEAUFORT LAB     0800   53 50  210/  2/  2 1021.9
30 SE NEW RVR IN 0708   58 63  360/  4/  6 1022.3
30 SE NEW RVR IN 0800      63                N/A     1/10
27 SE WRIGHTSVLE 0708   59 60   30/  4/  4 1022.5
5 SE WRIGHTSVLE  0808   56 56  170/  4/  6 1022.0
225 S CAPE HAT   0750   70 74  220/  8/ 12 1023.2    2/10   2/10
41 SE CHARLESTON 0810   71 73  230/ 14/ 16 1021.6

$$




USA.gov is the U.S. government's official web portal to all federal, state and local government web resources and services.